Хартфорд

США     41°45′55″N   72°40′10″W
темп.,
°C
ветер,
м/с
пор.,
м/с
влажн.,
%
обл.,
%
осадки,
мм/ч
давл.,
гПа
погр.,
м
7 марта, вс
вс701:00−6зсз386314 0.0 1023695
04:00−6зсз35670 0.0 1024436
07:00−6зсз36680 0.0 1026577
10:00−3сз254926 0.0 10261040
13:00+1сз474213 0.0 10261235
16:00+1сз46460 0.0 10251137
19:00−2сз49620 0.0 1028636
22:00−3сз38680 0.0 1028473
8 марта, пн
пн801:00−4сз37670 0.0 1029452
04:00−6сз38640 0.0 1029411
07:00−7сз39620 0.0 1031465
10:00−2ссз35390 0.0 1030737
13:00+3ссз23280 0.0 1029992
16:00+3зсз24340 0.0 1028980
19:00−1з135540 0.0 103088
22:00−1юз145839 0.0 1029163
9 марта, вт
вт901:000ююз286760 0.0 1028300
04:00+1юз3106995 0.0 1025420
07:00+1юз288097 0.1 1026248
10:00+8сз496721 0.0 10261115
13:00+9сз495214 0.0 10271219
16:00+9сз37543 0.0 10271103
19:00+4зсз28722 0.0 1030478
22:00+2сз14805 0.0 1032144
10 марта, ср
ср1001:000зюз11853 0.0 103222
04:000ссз01850 0.0 103321
07:000с00810 0.0 103422
10:00+5ю23554 0.0 1034368
13:00+11ююз36462 0.0 1032710
16:00+10ю47520 0.0 1030663
19:00+6ю27714 0.0 1031256
22:00+4ю288791 0.0 1031254
11 марта, чт
чт1101:00+3ююз289795 0.0 1030210
04:00+3ююз259783 0.0 1029126
07:00+3ююз389385 0.0 1028215
10:00+10ююз496899 0.0 1027491
13:00+16ююз595075 0.0 1024819
16:00+16ююз510480 0.0 1022830
19:00+11ююз4126248 0.0 1023401
22:00+11ююз41469100 0.0 1022552